Orbital Elements at Epoch 2459000.5 (2020-May-31.0) TDB
Reference: JPL 23 (heliocentric ecliptic J2000)
Element | Value | Uncertainty (1-sigma) | Units |
e | .2358663868576144 | 3.639e-08 | |
a | 3.282956409545387 | 2.2355e-08 | au |
q | 2.50861734301487 | 1.1853e-07 | au |
i | 2.1363474845217 | 3.972e-06 | deg |
node | 216.6368409399479 | 0.0001402 | deg |
peri | 351.5764234563898 | 0.00014068 | deg |
M | 92.63575518259515 | 1.4052e-05 | deg |
tp | 2458441.422200878431 (2018-Nov-18.92220088) | 8.2121e-05 | TDB |
period | 2172.681674446801 5.95 | 2.2192e-05 6.076e-08 | d yr |
n | .1656938539289985 | 1.6924e-09 | deg/d |
Q | 4.057295476075904 | 2.7627e-08 | au |
|
| | Orbit Determination Parameters
Additional Information
|